TimeEDT,TemperatureF,Dew PointF,Humidity,Sea Level PressureIn,VisibilityMPH,Wind Direction,Wind SpeedMPH,Gust SpeedMPH,PrecipitationIn,Events,Conditions,WindDirDegrees,DateUTC
12:17 AM,46.4,43.0,88,30.18,10.0,Calm,Calm,-,N/A,,Mostly Cloudy,0,2014-08-28 04:17:00
12:37 AM,46.9,43.7,88,30.18,10.0,Calm,Calm,-,N/A,,Mostly Cloudy,0,2014-08-28 04:37:00
12:56 AM,47.5,44.4,89,30.19,10.0,Calm,Calm,-,N/A,,Mostly Cloudy,0,2014-08-28 04:56:00
1:17 AM,46.9,43.3,87,30.19,10.0,Calm,Calm,-,N/A,,Scattered Clouds,0,2014-08-28 05:17:00
1:37 AM,46.4,43.0,88,30.19,10.0,Calm,Calm,-,N/A,,Clear,0,2014-08-28 05:37:00
1:57 AM,45.9,42.1,87,30.18,10.0,Calm,Calm,-,N/A,,Clear,0,2014-08-28 05:57:00
2:17 AM,45.1,41.9,88,30.18,10.0,Calm,Calm,-,N/A,,Clear,0,2014-08-28 06:17:00
2:36 AM,44.2,41.2,89,30.18,10.0,Calm,Calm,-,N/A,,Clear,0,2014-08-28 06:36:00
2:57 AM,43.7,40.1,87,30.19,10.0,Calm,Calm,-,N/A,,Clear,0,2014-08-28 06:57:00
3:17 AM,43.9,40.6,88,30.18,10.0,North,4.6,-,N/A,,Clear,360,2014-08-28 07:17:00
3:37 AM,44.1,41.2,90,30.18,10.0,NNW,3.5,-,N/A,,Clear,340,2014-08-28 07:37:00
3:57 AM,45.0,41.9,89,30.19,10.0,Calm,Calm,-,N/A,,Clear,0,2014-08-28 07:57:00
4:16 AM,43.9,40.5,88,30.19,10.0,Calm,Calm,-,N/A,,Clear,0,2014-08-28 08:16:00
4:37 AM,43.2,40.5,90,30.18,10.0,Calm,Calm,-,N/A,,Clear,0,2014-08-28 08:37:00
4:56 AM,42.3,38.8,88,30.18,10.0,Calm,Calm,-,N/A,,Clear,0,2014-08-28 08:56:00
5:17 AM,42.3,39.6,90,30.18,10.0,Calm,Calm,-,N/A,,Clear,0,2014-08-28 09:17:00
5:37 AM,43.0,39.7,88,30.18,10.0,Calm,Calm,-,N/A,,Clear,0,2014-08-28 09:37:00
5:56 AM,42.6,39.4,88,30.18,10.0,Calm,Calm,-,N/A,,Clear,0,2014-08-28 09:56:00
6:55 AM,41.0,37.4,87,30.18,10.0,Calm,Calm,-,N/A,,Clear,0,2014-08-28 10:55:00
7:50 AM,42.8,41.0,93,30.19,10.0,Calm,Calm,-,N/A,,Clear,0,2014-08-28 11:50:00
8:50 AM,50.0,44.6,82,30.18,10.0,Calm,Calm,-,N/A,,Clear,0,2014-08-28 12:50:00
9:50 AM,59.0,48.2,67,30.18,10.0,SE,6.9,-,N/A,,Clear,140,2014-08-28 13:50:00
10:55 AM,60.8,48.2,63,30.18,10.0,SSW,5.8,-,N/A,,Scattered Clouds,210,2014-08-28 14:55:00
11:50 AM,62.6,50.0,63,30.18,10.0,SSW,9.2,-,N/A,,Mostly Cloudy,210,2014-08-28 15:50:00
12:50 PM,64.4,50.0,59,30.17,10.0,West,6.9,-,N/A,,Scattered Clouds,260,2014-08-28 16:50:00
1:50 PM,66.2,48.2,52,30.16,10.0,South,5.8,-,N/A,,Overcast,180,2014-08-28 17:50:00
2:50 PM,66.2,46.4,49,30.14,10.0,NE,4.6,-,N/A,,Scattered Clouds,40,2014-08-28 18:50:00
3:45 PM,68.0,48.2,49,30.13,10.0,Calm,Calm,-,N/A,,Scattered Clouds,0,2014-08-28 19:45:00
4:55 PM,68.0,51.8,56,30.10,10.0,South,9.2,-,N/A,,Scattered Clouds,170,2014-08-28 20:55:00
5:49 PM,66.2,53.6,64,30.10,10.0,SSE,9.2,-,N/A,,Scattered Clouds,150,2014-08-28 21:49:00
6:45 PM,64.4,55.4,73,30.10,10.0,South,12.7,-,N/A,,Mostly Cloudy,180,2014-08-28 22:45:00
7:45 PM,62.6,53.6,72,30.09,10.0,South,11.5,16.1,N/A,,Partly Cloudy,170,2014-08-28 23:45:00
8:48 PM,59.0,51.8,77,30.09,10.0,SSE,10.4,-,N/A,,Clear,160,2014-08-29 00:48:00
9:46 PM,57.2,51.8,82,30.10,10.0,South,8.1,-,N/A,,Clear,170,2014-08-29 01:46:00
10:17 PM,57.4,51.8,82,30.10,10.0,South,8.1,-,N/A,,Clear,180,2014-08-29 02:17:00
10:36 PM,57.2,51.8,82,30.09,10.0,South,6.9,-,N/A,,Clear,180,2014-08-29 02:36:00
10:57 PM,56.8,51.8,83,30.09,10.0,South,6.9,-,N/A,,Clear,170,2014-08-29 02:57:00
11:17 PM,56.3,51.8,85,30.08,10.0,South,6.9,-,N/A,,Clear,170,2014-08-29 03:17:00
11:36 PM,55.9,51.8,86,30.08,10.0,South,6.9,-,N/A,,Clear,190,2014-08-29 03:36:00
11:54 PM,54.9,51.4,88,30.08,10.0,South,5.8,-,N/A,,Clear,190,2014-08-29 03:54:00